Weather History for K9V9 - October, 2012

Change the Weather History Date:

Tuesday, October 30, 2012

  Actual Average Record
Temperature  
Mean Temperature 52 °F -  
Max Temperature 63 °F 50 °F 78 °F (2007)
Min Temperature 41 °F 29 °F 19 °F (1996)
Degree Days  
Heating Degree Days 14    
Growing Degree Days 2 (Base 50)    
Moisture  
Dew Point 34 °F    
Average Humidity 57    
Maximum Humidity 76    
Minimum Humidity 36    
Precipitation  
Precipitation 0.00 in - - ()
Sea Level Pressure  
Sea Level Pressure 30.02 in    
Wind  
Wind Speed 10 mph (SE)    
Max Wind Speed 15 mph    
Max Gust Speed 20 mph    
Averages and records for this station are not official NWS values.
T = Trace of Precipitation, MM = Missing Value Source: NWS Daily Summary

Daily Weather History Graph

Daily Weather History Graph

Search for Another Location

Airport or City:

Trip Planner

Search our weather history database for the weather conditions in past years. The results will help you decide how hot, cold, wet, or windy it might be!

Date:

Astronomy

Oct. 30, 2012 Rise Set
Actual Time 8:11 AM CDT 6:29 PM CDT
Civil Twilight 7:41 AM CDT 6:59 PM CDT
Nautical Twilight 7:07 AM CDT 7:33 PM CDT
Astronomical Twilight 6:34 AM CDT 8:06 PM CDT
Moon 6:57 PM CDT (10/30) 9:02 AM CDT (10/30)
Length of Visible Light 11h 18m
Length of Day
10h 18m
Full, 99% of the Moon is Illuminated
Oct 30
Full
Nov 6
Last Quarter
Nov 13
New
Nov 20
First Quarter
Nov 28
Full

Hourly Weather History & Observations

Time (CDT) Temp. Windchill Dew Point Humidity Pressure Visibility Wind Dir Wind Speed Gust Speed Precip Events Conditions
12:52 AM 46.0 °F 41.4 °F 34.0 °F 63% 30.01 in - ESE 9.2 mph - N/A   Unknown
1:52 AM 46.9 °F - 34.0 °F 61% 30.01 in - SE 8.1 mph - N/A   Unknown
2:52 AM 46.0 °F 40.2 °F 35.1 °F 66% 29.99 in - ESE 12.7 mph - N/A   Unknown
3:52 AM 45.0 °F 39.3 °F 35.1 °F 68% 29.99 in - ESE 11.5 mph 19.6 mph N/A   Unknown
4:52 AM 44.1 °F 37.4 °F 35.1 °F 71% 29.99 in - ESE 13.8 mph - N/A   Unknown
5:52 AM 44.1 °F 37.4 °F 34.0 °F 68% 30.01 in - SE 13.8 mph - N/A   Unknown
6:52 AM 43.0 °F 35.7 °F 34.0 °F 71% 30.01 in - SSE 15.0 mph - N/A   Unknown
7:52 AM 44.1 °F 38.6 °F 34.0 °F 68% 30.04 in - East 10.4 mph - N/A   Unknown
8:52 AM 41.0 °F 35.2 °F 34.0 °F 76% 30.05 in - SE 9.2 mph - N/A   Unknown
9:52 AM 45.0 °F 39.3 °F 34.0 °F 65% 30.05 in - SSE 11.5 mph - N/A   Unknown
10:52 AM 48.0 °F - 34.0 °F 58% 30.06 in - SE 12.7 mph - N/A   Unknown
11:52 AM 51.1 °F - 34.0 °F 52% 30.05 in - South 9.2 mph - N/A   Unknown
12:52 PM 55.0 °F - 34.0 °F 45% 30.05 in - SSE 6.9 mph - N/A   Unknown
1:52 PM 59.0 °F - 34.0 °F 39% 30.02 in - SSE 9.2 mph - N/A   Unknown
2:52 PM 61.0 °F - 34.0 °F 36% 29.99 in - South 11.5 mph - N/A   Unknown
3:52 PM 61.0 °F - 34.0 °F 36% 29.99 in - South 6.9 mph - N/A   Unknown
4:52 PM 62.1 °F - 35.1 °F 37% 29.99 in - Calm Calm - N/A   Unknown
5:52 PM 57.9 °F - 35.1 °F 42% 30.00 in - ESE 5.8 mph - N/A   Unknown
6:52 PM 51.1 °F - 35.1 °F 54% 30.01 in - ESE 8.1 mph - N/A   Unknown
7:52 PM 50.0 °F - 33.1 °F 52% 30.02 in - ESE 8.1 mph - N/A   Unknown
8:52 PM 46.9 °F - 32.0 °F 56% 30.03 in - ESE 9.2 mph - N/A   Unknown
9:52 PM 46.0 °F 42.5 °F 32.0 °F 58% 30.02 in - ESE 6.9 mph - N/A   Unknown
10:52 PM 43.0 °F 38.2 °F 32.0 °F 65% 30.03 in - ESE 8.1 mph - N/A   Unknown
11:52 PM 41.0 °F 35.8 °F 30.9 °F 67% 30.02 in - ESE 8.1 mph - N/A   Unknown